Weather in Dada

Russia / Khabarovsk Krai     49°10′08″N   136°28′16″E
temp.,
°C
wind,
m/s
gust,
m/s
humid.,
%
clouds,
%
prec.,
mm/h
press.,
hPa
HPBL,
m
20 january, thu
thu2001:00−25sse11100100 0.1 102829
04:00−24s1110089 0.1 102812
07:00−24ssw129992 0.1 102958
10:00−24ssw129883 0.1 103079
13:00−20sw229395 0.0 1030264
16:00−20wsw129368 0.0 1030179
19:00−26wsw111007 0.0 10329
22:00−28sse2210089 0.0 103212
21 january, fri
fri2101:00−28s23100100 0.0 103346
04:00−27s2510097 0.1 103383
07:00−26s279997 0.0 1034146
10:00−25ssw289899 0.1 1034196
13:00−21sw3693100 0.0 1034388
16:00−19sw359294 0.1 1032342
19:00−26sw111006 0.0 10339
22:00−29sse2110083 0.0 103310
22 january, sat
sat2201:00−30sse2210082 0.0 103314
04:00−31sse1110080 0.0 103310
07:00−31s1110090 0.0 103311
10:00−28ssw23100100 0.0 103380
13:00−22sw249484 0.0 1032260
16:00−20sw249373 0.0 1031260
19:00−26sw1110014 0.0 10319
22:00−29sse1110049 0.0 10319
23 january, sun
sun2301:00−30s11100100 0.0 103110
04:00−31s11100100 0.0 103010
07:00−32s11100100 0.0 103010
10:00−28ssw22100100 0.1 102970
13:00−22sw239585 0.0 1028247
16:00−21sw239368 0.0 1027227
19:00−27ssw111005 0.0 10279
22:00−29sse1110063 0.0 10279
24 january, mon
mon2401:00−30sse22100100 0.0 102722
04:00−31sse1110092 0.0 102712
07:00−31s1110095 0.0 102711
10:00−26sw2599100 0.1 1028120
13:00−21sw3594100 0.1 1028351
16:00−19wsw2593100 0.1 1027370
19:00−26wnw1110027 0.0 10289
22:00−28sse1110071 0.0 10289